Satellite: SO-50
Catalog number: 27607
Epoch time:      12033.38863524
Element set:    0679
Inclination:      064.5596 deg
RA of node:       347.9385 deg
Eccentricity:    0.0085118
Arg of perigee:   275.1093 deg
Mean anomaly:     084.0300 deg
Mean motion:   14.72198020 rev/day
Decay rate:       7.26e-06 rev/day^2
Epoch rev:           48997
Checksum:              332

Satellite: CO-55
Catalog number: 27844
Epoch time:      12033.58772258
Element set:    0302
Inclination:      098.7049 deg
RA of node:       043.9347 deg
Eccentricity:    0.0009022
Arg of perigee:   254.1949 deg
Mean anomaly:     105.8226 deg
Mean motion:   14.20955751 rev/day
Decay rate:       2.11e-06 rev/day^2
Epoch rev:           44563
Checksum:              306

Satellite: CO-57
Catalog number: 27848
Epoch time:      12033.56808960
Element set:    0251
Inclination:      098.7136 deg
RA of node:       043.1911 deg
Eccentricity:    0.0008787
Arg of perigee:   259.1460 deg
Mean anomaly:     100.8716 deg
Mean motion:   14.20716296 rev/day
Decay rate:       1.64e-06 rev/day^2
Epoch rev:           44557
Checksum:              317

Satellite: AO-51
Catalog number: 28375
Epoch time:      12033.87961406
Element set:    0186
Inclination:      098.1277 deg
RA of node:       005.5870 deg
Eccentricity:    0.0084513
Arg of perigee:   090.4326 deg
Mean anomaly:     270.6560 deg
Mean motion:   14.40889961 rev/day
Decay rate:       1.53e-06 rev/day^2
Epoch rev:           39928
Checksum:              326

Satellite: CP3
Catalog number: 31129
Epoch time:      12033.96919061
Element set:    0087
Inclination:      097.8874 deg
RA of node:       049.7052 deg
Eccentricity:    0.0101021
Arg of perigee:   183.1297 deg
Mean anomaly:     176.9267 deg
Mean motion:   14.52876653 rev/day
Decay rate:       6.83e-06 rev/day^2
Epoch rev:           25434
Checksum:              319

Satellite: CO-65
Catalog number: 32785
Epoch time:      12033.67651587
Element set:    0219
Inclination:      097.8196 deg
RA of node:       097.8496 deg
Eccentricity:    0.0015554
Arg of perigee:   141.9531 deg
Mean anomaly:     218.2802 deg
Mean motion:   14.82658895 rev/day
Decay rate:      1.083e-05 rev/day^2
Epoch rev:           20368
Checksum:              348

Satellite: PRISM
Catalog number: 33493
Epoch time:      12034.76898977
Element set:     390
Inclination:      098.1496 deg
RA of node:       172.3709 deg
Eccentricity:    0.0019316
Arg of perigee:   016.0125 deg
Mean anomaly:     344.1695 deg
Mean motion:   14.83147984 rev/day
Decay rate:      2.165e-05 rev/day^2
Epoch rev:           16382
Checksum:              329

Satellite: SOHLA-1
Catalog number: 33496
Epoch time:      12033.91372347
Element set:    0657
Inclination:      098.0920 deg
RA of node:       146.6638 deg
Eccentricity:    0.0007587
Arg of perigee:   109.1389 deg
Mean anomaly:     251.0640 deg
Mean motion:   14.69857695 rev/day
Decay rate:       2.66e-06 rev/day^2
Epoch rev:           16237
Checksum:              330

Satellite: TISAT-1
Catalog number: 36799
Epoch time:      12033.87489852
Element set:    0662
Inclination:      098.0760 deg
RA of node:       109.2026 deg
Eccentricity:    0.0013840
Arg of perigee:   249.1287 deg
Mean anomaly:     110.8407 deg
Mean motion:   14.81479703 rev/day
Decay rate:      1.441e-05 rev/day^2
Epoch rev:           08445
Checksum:              313

Satellite: STUDSAT
Catalog number: 36801
Epoch time:      12033.91679196
Element set:    0353
Inclination:      098.0829 deg
RA of node:       109.4588 deg
Eccentricity:    0.0012287
Arg of perigee:   236.0390 deg
Mean anomaly:     123.9624 deg
Mean motion:   14.83015954 rev/day
Decay rate:      4.227e-05 rev/day^2
Epoch rev:           08446
Checksum:              312

Satellite: FO-69
Catalog number: 37227
Epoch time:      12033.44601156
Element set:    0094
Inclination:      071.9693 deg
RA of node:       251.4561 deg
Eccentricity:    0.0018477
Arg of perigee:   216.6687 deg
Mean anomaly:     143.3210 deg
Mean motion:   14.76913447 rev/day
Decay rate:       3.10e-06 rev/day^2
Epoch rev:           01605
Checksum:              293

Satellite: FO-70
Catalog number: 37380
Epoch time:      12033.49675775
Element set:    0096
Inclination:      071.9722 deg
RA of node:       251.7328 deg
Eccentricity:    0.0018865
Arg of perigee:   214.0303 deg
Mean anomaly:     145.9646 deg
Mean motion:   14.76671424 rev/day
Decay rate:       2.88e-06 rev/day^2
Epoch rev:           01595
Checksum:              324

/EX
SB KEPS @ AMSAT  $ORB12034.W
Orbital Elements  12034.WEATHER

HR AMSAT ORBITAL ELEMENTS FOR WEATHER SATELLITES
FROM WA5QGD FORT WORTH,TX February 3, 2012
Send SUBSCRIBE KEPS/UNSUBSCRIBE KEPS to majordomo@amsat.org only
BID: ORB12034.W
TO ALL RADIO AMATEURS BT

Satellite: NOAA-10
Catalog number: 16969
Epoch time:      12034.51648816
Element set:     803
Inclination:      098.5968 deg
RA of node:       065.8732 deg
Eccentricity:    0.0011451
Arg of perigee:   268.6564 deg
Mean anomaly:     091.3321 deg
Mean motion:   14.27525380 rev/day
Decay rate:       1.31e-06 rev/day^2
Epoch rev:           32065
Checksum:              304

